Flag for Moldova Weather past 2 weeks in Bălți, Moldova

Now
39 °F

Scattered clouds.


Feels Like: 31 °F
Forecast: 34 / 44 °F
Wind: 14 mph from Southwest

Location: Baltsi-Leadoveni - The North of Moldova

Current Time: Dec 19, 2014 at 3:08:10 PM

Latest Report: Dec 19, 2014 at 2:00 PM


Visibility: N/A

Pressure: 29.95 "Hg

Humidity: 87%

Dew point: 36 °F

Location of BălțiLocation

Historic Weather in Bălți — Graph

°F

Bălți temperature yesterday

Maximum temperature yesterday: 36 °F (at 12:00 PM)
Minimum temperature yesterday: 32 °F (at 5:00 AM)
Average temperature yesterday: 34 °F

Past Weeks' High & Low Weather Summary

 TemperatureHumidityPressure
High43 °F (Dec 14, 12:00 PM)100% (Dec 5, 10:30 PM)30.36 "Hg (Dec 5, 10:30 PM)
Low25 °F (Dec 7, 1:30 AM)51% (Dec 6, 5:00 AM)29.77 "Hg (Dec 17, 2:00 PM)
Average32 °F90%30.10 "Hg
* Reported Dec 4 2:00 PM — Dec 19 2:00 PM, Bălți, Weather by CustomWeather, © 2014

Note: Actual official high and low records may vary slightly from our data, if they occured in-between our weather recording intervals... More about our weather records

Advertising

Bălți weather history for previous 24 hours

 ConditionsComfort  
Time TempWeatherWind HumidityBarometerVisibility
2:00 PM
Dec 19
39 °FScattered clouds.14 mph87%29.95 "HgN/A
1:30 PM39 °FScattered clouds.16 mph87%29.95 "HgN/A
1:00 PM37 °FScattered clouds.15 mph93%29.98 "HgN/A
12:00 PM36 °FPassing clouds.13 mph100%29.98 "HgN/A
11:00 AM32 °FIce fog.10 mph100%30.01 "Hg2 mi
10:30 AM32 °FIce fog.12 mph100%30.01 "Hg1 mi
10:00 AM30 °FIce fog.12 mph100%30.01 "Hg1 mi
9:00 AM30 °FIce fog.8 mph100%30.01 "Hg0 mi
8:00 AM30 °FChilly.9 mph93%30.01 "Hg0 mi
7:30 AM30 °FChilly.9 mph93%30.01 "Hg0 mi
7:00 AM30 °FChilly.10 mph100%30.01 "Hg0 mi
6:00 AM30 °FChilly.9 mph93%30.01 "Hg0 mi
5:00 AM30 °FChilly.9 mph93%30.04 "Hg0 mi
4:00 AM30 °FChilly.9 mph100%30.04 "Hg0 mi
3:30 AM30 °FChilly.8 mph100%30.04 "Hg0 mi
3:00 AM30 °FChilly.9 mph100%30.04 "Hg0 mi
2:00 AM32 °FChilly.13 mph93%30.04 "Hg0 mi
1:30 AM32 °FChilly.10 mph100%30.04 "Hg0 mi
1:00 AM32 °FChilly.8 mph100%30.04 "Hg0 mi
12:00 AM32 °FChilly.9 mph100%30.07 "Hg0 mi
11:30 PM
Dec 18
32 °FChilly.10 mph100%30.04 "Hg0 mi
11:00 PM32 °FChilly.9 mph100%30.04 "Hg0 mi
10:00 PM32 °FChilly.8 mph100%30.04 "Hg0 mi
9:00 PM32 °FChilly.10 mph100%30.04 "Hg0 mi
8:00 PM34 °FChilly.6 mph93%30.04 "Hg0 mi
7:30 PM34 °FChilly.6 mph100%30.01 "Hg0 mi
7:00 PM34 °FChilly.5 mph93%30.01 "Hg0 mi
6:00 PM34 °FChilly.2 mph100%30.01 "Hg2 mi
5:00 PM34 °FChilly.2 mph100%30.01 "Hg4 mi
4:30 PM36 °FChilly.2 mph93%29.98 "Hg5 mi
4:00 PM36 °FLow clouds.1 mph93%29.98 "Hg5 mi
3:00 PM36 °FLow clouds.3 mph93%29.98 "HgN/A
Weather by CustomWeather, © 2014

See weather overviewHow to use our weather pages